This demonstration page uses our WeatherBlox Daily Observations layout. Learn more.

Left ArrowRight Arrow

40.92501, -98.34201

Hourly Observations for June 16, 2020

Temp ( °F °C ) Dew Point ( °F °C ) Humidity (%) Winds ( mph kmh ) Pressure ( in mb ) Visibility ( mi km ) Precip ( " mm )
12:53 am 00:53 Clear 77 25 54 12.2 45 45 SSE 21 33 30.02 1017 10 16 0.00 0.00
1:53 am 01:53 Clear 75 23.9 56 13.3 52 52 SSE 16 26 30.01 1016 10 16 0.00 0.00
2:53 am 02:53 Clear 73 22.8 57 13.9 57 57 S 16 26 30.02 1017 10 16 0.00 0.00
3:53 am 03:53 Clear 72 22.2 58 14.4 61 61 SSE 17 28 30.02 1017 10 16 0.00 0.00
4:53 am 04:53 Clear 72 22.2 59 15 64 64 SSE 14 22 30.02 1017 10 16 0.00 0.00
5:53 am 05:53 Clear 72 22.2 59 15 64 64 S 16 26 30.02 1017 10 16 0.00 0.00
6:53 am 06:53 Sunny 72 22.2 60 15.6 66 66 SSE 17 28 30.02 1017 10 16 0.00 0.00
7:53 am 07:53 Sunny 75 23.9 60 15.6 60 60 S 20 31 30.02 1017 10 16 0.00 0.00
8:53 am 08:53 Sunny 79 26.1 60 15.6 52 52 S 22 35 30.01 1016 10 16 0.00 0.00
9:53 am 09:53 Sunny 84 28.9 60 15.6 44 44 S 24 39 30.01 1016 10 16 0.00 0.00
10:53 am 10:53 Sunny 87 30.6 59 15 39 39 S 25 41 30.00 1016 10 16 0.00 0.00
11:53 am 11:53 Sunny 90 32.2 60 15.6 37 37 S 25 41 29.99 1016 10 16 0.00 0.00
12:53 pm 12:53 Sunny 92 33.3 59 15 33 33 S 26 43 29.98 1015 10 16 0.00 0.00
1:53 pm 13:53 Mostly Sunny 95 35 58 14.4 29 29 S 22 35 29.96 1015 10 16 0.00 0.00
2:53 pm 14:53 Mostly Sunny 95 35 57 13.9 28 28 S 25 41 29.95 1014 10 16 0.00 0.00
3:53 pm 15:53 Mostly Sunny 95 35 56 13.3 27 27 SSE 23 37 29.93 1013 10 16 0.00 0.00
4:53 pm 16:53 Mostly Sunny 94 34.4 55 12.8 27 27 S 21 33 29.90 1013 10 16 0.00 0.00
5:53 pm 17:53 Mostly Sunny 92 33.3 56 13.3 30 30 SSE 21 33 29.89 1012 10 16 0.00 0.00
6:53 pm 18:53 Sunny 91 32.8 55 12.8 30 30 S 21 33 29.87 1012 10 16 0.00 0.00
7:53 pm 19:53 Sunny 89 31.7 56 13.3 33 33 SSE 21 33 29.87 1012 10 16 0.00 0.00
8:53 pm 20:53 Sunny 85 29.4 57 13.9 39 39 SSE 17 28 29.88 1012 10 16 0.00 0.00
9:53 pm 21:53 Clear 82 27.8 58 14.4 44 44 SSE 16 26 29.89 1012 10 16 0.00 0.00
10:53 pm 22:53 Clear 80 26.7 59 15 49 49 SSE 18 30 29.90 1013 10 16 0.00 0.00
11:53 pm 23:53 Clear 78 25.6 59 15 52 52 SSE 17 28 29.90 1013 10 16 0.00 0.00

Powered by AerisWeather